FW6014 Weather Reports


Display with metric or nautical units.
time (UTC)temp
F
wind
direction
speed
MPH
gust
MPH
rain 1hr
in
rain 24hr
in
rain mn
in
humidity
%
barometer
mb
20260510063229 42 277 0.0 0.0 0.00 0.08 0.02 96 1012.6
20260510063021 42 277 0.0 0.0 0.00 0.08 0.08 96 1013.7
20260510062730 42 277 0.0 0.0 0.01 0.08 0.02 96 1012.7
20260510062230 42 277 0.0 0.0 0.01 0.08 0.02 96 1012.8
20260510061731 42 277 0.0 0.0 0.01 0.08 0.02 96 1012.7
20260510061609 42 277 0.0 0.0 0.01 0.08 0.08 96 1013.9
20260510060727 42 277 0.0 1.0 0.01 0.08 0.02 96 1012.9
20260510060224 42 277 0.0 2.0 0.01 0.08 0.02 96 1013.1
20260510060014 42 277 0.0 2.0 0.01 0.08 0.08 96 1014.2
20260510055722 42 277 0.0 2.0 0.01 0.08 0.02 96 1013.2
20260510055223 43 277 0.0 0.0 0.01 0.08 0.02 96 1013.1
20260510054604 42 277 0.0 1.0 0.01 0.08 0.08 96 1014.1
20260510054220 42 277 0.0 1.0 0.01 0.08 0.02 96 1013.0
20260510053719 42 277 0.0 0.0 0.01 0.08 0.02 96 1012.9
20260510053219 42 277 0.0 1.0 0.01 0.08 0.02 96 1012.9
20260510053150 42 277 0.0 0.0 0.01 0.08 0.08 96 1014.1
20260510052718 42 277 0.0 1.0 0.00 0.07 0.01 96 1012.9
20260510052220 42 277 0.0 1.0 0.00 0.07 0.01 96 1013.1
20260510051715 42 277 0.0 1.0 0.00 0.07 0.01 95 1013.0
20260510051544 42 277 0.0 1.0 0.00 0.07 0.07 95 1014.1
20260510051214 42 277 0.0 0.0 0.00 0.07 0.01 96 1012.9
20260510050714 42 277 0.0 0.0 0.01 0.07 0.01 95 1012.9
20260510050211 42 277 0.0 0.0 0.01 0.07 0.01 95 1012.9
20260510050138 42 277 0.0 0.0 0.01 0.07 0.07 95 1014.0
20260510045710 43 277 0.0 0.0 0.01 0.07 0.01 95 1013.0
20260510045211 43 277 0.0 0.0 0.01 0.07 0.01 95 1013.0
20260510044710 43 277 0.0 0.0 0.01 0.07 0.01 95 1013.1
20260510044534 42 277 0.0 0.0 0.01 0.07 0.07 95 1014.3
20260510044212 43 277 0.0 0.0 0.01 0.07 0.01 95 1013.2
20260510043712 42 277 0.0 0.0 0.01 0.07 0.01 95 1013.1
20260510043203 42 277 0.0 0.0 0.01 0.07 0.01 95 1013.2
20260510043133 42 277 0.0 0.0 0.01 0.07 0.07 95 1014.3
20260510042703 43 277 0.0 0.0 0.01 0.07 0.01 95 1013.3
20260510041706 43 277 0.0 0.0 0.01 0.07 0.01 95 1013.3
20260510041540 42 277 0.0 0.0 0.01 0.07 0.07 95 1014.5
20260510041210 43 277 0.0 0.0 0.01 0.07 0.00 95 1013.3
20260510040703 43 277 0.0 1.0 0.00 0.06 0.00 95 1013.3
20260510040212 43 277 0.0 1.0 0.00 0.06 0.00 95 1013.4
20260510040134 42 277 0.0 1.0 0.00 0.06 0.06 95 1014.6
20260510035706 43 277 0.0 1.0 0.00 0.06 0.06 95 1013.4
20260510035219 42 277 0.0 1.0 0.00 0.06 0.06 95 1013.4
20260510033207 43 277 0.0 0.0 0.00 0.06 0.06 95 1014.0
20260510033137 42 277 0.0 0.0 0.00 0.06 0.06 95 1015.1
20260510032705 43 277 0.0 0.0 0.00 0.06 0.06 95 1013.9
20260510032208 43 277 0.0 0.0 0.00 0.06 0.06 95 1013.9
20260510031704 43 277 0.0 0.0 0.00 0.06 0.06 95 1013.8
20260510031205 43 277 0.0 0.0 0.00 0.06 0.06 95 1013.8
20260510030702 43 277 0.0 0.0 0.00 0.06 0.06 95 1013.9
20260510030204 43 277 0.0 0.0 0.01 0.06 0.06 95 1014.0
20260510025702 43 277 0.0 0.0 0.01 0.06 0.06 95 1014.2
20260510025201 43 277 0.0 0.0 0.01 0.06 0.06 95 1014.2
20260510024703 43 277 0.0 1.0 0.01 0.06 0.06 95 1014.2
20260510024516 42 277 0.0 0.0 0.01 0.06 0.06 95 1015.3
20260510024201 43 277 0.0 1.0 0.01 0.06 0.06 95 1014.1
20260510023701 43 277 0.0 1.0 0.01 0.06 0.06 95 1014.1
20260510023201 43 277 0.0 1.0 0.01 0.06 0.06 95 1014.0
20260510023115 42 277 0.0 1.0 0.01 0.06 0.06 95 1015.1
20260510022701 43 277 0.0 0.0 0.01 0.06 0.06 94 1014.0
20260510022201 43 277 0.0 0.0 0.01 0.06 0.06 95 1014.1
20260510021701 43 277 0.0 0.0 0.01 0.06 0.06 95 1014.2
20260510021512 42 277 0.0 0.0 0.01 0.06 0.06 94 1015.2
20260510021202 43 277 0.0 0.0 0.01 0.06 0.06 94 1014.2
20260510020702 43 277 0.0 0.0 0.01 0.06 0.06 94 1014.4
20260510020201 43 277 0.0 0.0 0.00 0.05 0.05 94 1014.4
20260510015701 43 277 0.0 1.0 0.00 0.05 0.05 94 1014.4
20260510015201 43 277 0.0 1.0 0.00 0.05 0.05 94 1014.6
20260510014702 43 277 0.0 0.0 0.00 0.05 0.05 94 1014.6
20260510014503 42 277 0.0 0.0 0.00 0.05 0.05 94 1015.6
20260510014202 43 277 0.0 1.0 0.00 0.05 0.05 94 1014.5
20260510013701 43 277 0.0 1.0 0.00 0.05 0.05 94 1014.5
20260510013200 43 277 0.0 0.0 0.00 0.05 0.05 94 1014.5
20260510013109 43 277 0.0 0.0 0.00 0.05 0.05 94 1015.6
20260510012201 43 277 0.0 0.0 0.00 0.05 0.05 94 1014.6
20260510011702 43 277 0.0 1.0 0.00 0.05 0.05 94 1014.6
20260510011503 43 277 0.0 1.0 0.00 0.05 0.05 94 1015.6
20260510011201 43 277 0.0 1.0 0.00 0.05 0.05 94 1014.6
20260510010701 43 277 0.0 0.0 0.00 0.05 0.05 94 1014.6
20260510010201 43 277 0.0 0.0 0.00 0.05 0.05 94 1014.6
20260510005201 43 277 0.0 0.0 0.00 0.05 0.05 94 1014.5
20260510004702 43 277 0.0 0.0 0.00 0.05 0.05 94 1014.4
20260510004503 42 277 0.0 0.0 0.00 0.05 0.05 94 1015.4
20260510004202 43 277 0.0 1.0 0.00 0.05 0.05 94 1014.3
20260510003702 43 277 0.0 1.0 0.00 0.05 0.05 94 1014.4
20260510003202 43 277 0.0 0.0 0.00 0.05 0.05 94 1014.3
20260510003102 43 277 0.0 0.0 0.00 0.05 0.05 94 1015.3
20260510002702 43 277 0.0 1.0 0.00 0.05 0.05 94 1014.2
20260510002202 43 277 0.0 1.0 0.00 0.05 0.05 93 1014.1
20260510001701 43 277 0.0 2.0 0.00 0.05 0.05 93 1014.0
20260510001651 43 277 0.0 2.0 0.00 0.05 0.05 93 1015.1
20260510001202 43 277 0.0 2.0 0.00 0.05 0.05 94 1014.0
20260510000701 43 277 0.0 0.0 0.00 0.05 0.05 94 1013.9
20260510000204 43 277 0.0 1.0 0.00 0.05 0.05 94 1014.0
20260510000040 43 277 0.0 1.0 0.00 0.05 0.05 94 1014.9
20260509235701 43 277 0.0 1.0 0.01 0.05 0.05 94 1013.9
20260509234702 43 277 0.0 0.0 0.01 0.05 0.05 94 1013.8
20260509234635 43 277 0.0 0.0 0.01 0.05 0.05 94 1014.8
20260509234200 43 277 0.0 1.0 0.01 0.05 0.05 94 1013.9
20260509233702 43 277 0.0 1.0 0.01 0.05 0.05 93 1013.9
20260509233202 43 277 0.0 1.0 0.01 0.05 0.05 93 1013.9
20260509233040 43 277 0.0 1.0 0.01 0.05 0.05 93 1014.9
20260509232702 43 277 0.0 1.0 0.01 0.05 0.05 93 1014.0
20260509232202 43 277 0.0 1.0 0.01 0.05 0.05 93 1014.1
20260509231702 43 277 0.0 1.0 0.01 0.05 0.05 93 1014.0
20260509231631 43 277 0.0 1.0 0.01 0.05 0.05 93 1015.0
20260509231200 43 277 1.0 7.0 0.01 0.05 0.05 93 1014.0
20260509230202 43 277 0.0 2.0 0.01 0.05 0.05 92 1014.3
20260509230030 43 277 0.0 2.0 0.00 0.04 0.04 92 1015.3
20260509225702 43 277 0.0 3.0 0.00 0.04 0.04 92 1014.2
20260509225202 43 277 1.0 6.0 0.00 0.04 0.04 92 1014.3
20260509224630 43 277 0.0 6.0 0.00 0.04 0.04 92 1015.4
20260509224201 44 277 1.0 5.0 0.00 0.04 0.04 92 1014.3
20260509223701 44 277 2.0 5.0 0.00 0.04 0.04 91 1014.3
20260509223035 43 277 1.0 7.0 0.00 0.04 0.04 92 1015.4
20260509222649 44 277 2.0 7.0 0.00 0.04 0.04 92 1014.3
20260509222138 44 277 2.0 7.0 0.00 0.04 0.04 92 1014.3
20260509221632 44 277 2.0 8.0 0.00 0.04 0.04 91 1014.4
20260509221625 43 277 1.0 8.0 0.00 0.04 0.04 91 1015.4
20260509221129 44 277 1.0 8.0 0.00 0.04 0.04 91 1014.4
20260509220630 44 277 1.0 6.0 0.00 0.04 0.04 91 1014.2
20260509220130 44 277 2.0 6.0 0.00 0.04 0.04 91 1014.1
20260509220028 44 277 2.0 6.0 0.00 0.04 0.04 91 1015.1
20260509215630 44 277 1.0 6.0 0.00 0.04 0.04 91 1014.1
20260509215130 44 277 1.0 3.0 0.00 0.04 0.04 91 1014.1
20260509214613 44 277 0.0 2.0 0.01 0.04 0.04 91 1015.2
20260509214129 45 277 0.0 2.0 0.01 0.04 0.04 90 1014.3
20260509213129 45 277 0.0 0.0 0.01 0.04 0.04 91 1014.4
20260509213003 45 277 0.0 0.0 0.01 0.04 0.04 91 1015.5
20260509212629 45 277 0.0 1.0 0.01 0.04 0.04 90 1014.4
20260509212130 45 277 0.0 1.0 0.01 0.04 0.04 90 1014.2
20260509211630 45 277 0.0 2.0 0.01 0.04 0.04 90 1014.2
20260509211604 45 277 0.0 2.0 0.01 0.04 0.04 90 1015.2
20260509211130 45 277 0.0 2.0 0.01 0.04 0.04 90 1014.2
20260509210630 45 277 0.0 2.0 0.02 0.04 0.04 90 1014.1
20260509210130 45 277 1.0 4.0 0.02 0.04 0.04 90 1014.2
20260509210005 45 277 0.0 4.0 0.02 0.04 0.04 90 1015.3
20260509205630 45 277 1.0 4.0 0.02 0.04 0.04 89 1014.3
20260509205131 45 277 0.0 3.0 0.02 0.04 0.04 90 1014.4
20260509204630 45 277 1.0 3.0 0.01 0.03 0.03 90 1014.5
20260509204555 45 277 0.0 2.0 0.01 0.03 0.03 90 1015.5
20260509204130 45 277 1.0 3.0 0.02 0.03 0.03 90 1014.6
20260509203629 45 277 0.0 3.0 0.02 0.03 0.03 89 1014.7
20260509202630 45 277 0.0 3.0 0.03 0.03 0.03 89 1014.8
20260509202130 45 277 1.0 5.0 0.03 0.03 0.03 90 1014.8
20260509201630 45 277 1.0 5.0 0.03 0.03 0.03 89 1014.9
20260509201550 45 277 0.0 5.0 0.03 0.03 0.03 89 1015.9
20260509201130 45 277 1.0 4.0 0.03 0.03 0.03 88 1014.9
20260509200629 45 277 2.0 5.0 0.02 0.02 0.02 88 1014.9
20260509195628 45 277 1.0 4.0 0.02 0.02 0.02 87 1015.0
20260509195129 45 277 1.0 5.0 0.02 0.02 0.02 87 1015.0
20260509194525 45 277 2.0 4.0 0.01 0.01 0.01 86 1016.0
20260509194129 45 277 0.0 3.0 0.01 0.01 0.01 87 1015.0
20260509193121 45 277 0.0 3.0 0.01 0.01 0.01 86 1016.2
20260509192629 45 277 1.0 4.0 0.00 0.00 0.00 84 1015.2
20260509191516 45 277 1.0 8.0 0.00 0.00 0.00 81 1016.2
20260509191131 46 277 2.0 8.0 0.00 0.00 0.00 79 1015.2
20260509190129 47 277 3.0 7.0 0.00 0.00 0.00 75 1015.1
20260509190113 47 277 2.0 7.0 0.00 0.00 0.00 75 1016.1
20260509185629 47 277 2.0 11.0 0.00 0.00 0.00 73 1015.2
20260509185129 48 277 2.0 11.0 0.00 0.00 0.00 74 1015.0
20260509184630 48 277 3.0 9.0 0.00 0.00 0.00 71 1015.0
20260509184520 48 277 2.0 9.0 0.00 0.00 0.00 71 1016.0
20260509184131 49 277 3.0 9.0 0.00 0.00 0.00 69 1014.9
20260509183630 49 277 3.0 11.0 0.00 0.00 0.00 66 1015.0
20260509183133 50 277 2.0 11.0 0.00 0.00 0.00 62 1014.9
20260509183111 50 277 2.0 11.0 0.00 0.00 0.00 62 1016.0
20260509182630 51 277 2.0 9.0 0.00 0.00 0.00 57 1014.8
20260509181629 51 277 3.0 9.0 0.00 0.00 0.00 55 1014.7
20260509181514 51 277 2.0 9.0 0.00 0.00 0.00 55 1015.8
20260509181129 51 277 3.0 9.0 0.00 0.00 0.00 54 1014.8
20260509180628 52 277 2.0 6.0 0.00 0.00 0.00 52 1014.6
20260509180129 52 277 3.0 8.0 0.00 0.00 0.00 51 1014.6
20260509180107 52 277 1.0 8.0 0.00 0.00 0.00 51 1015.6
20260509175630 53 277 2.0 8.0 0.00 0.00 0.00 50 1014.6
20260509175130 53 277 2.0 6.0 0.00 0.00 0.00 48 1014.4
20260509174628 53 277 3.0 10.0 0.00 0.00 0.00 47 1014.4
20260509174506 52 277 1.0 10.0 0.00 0.00 0.00 47 1015.4
20260509174129 53 277 3.0 11.0 0.00 0.00 0.00 48 1014.5
20260509173629 53 277 2.0 11.0 0.00 0.00 0.00 47 1014.5
20260509173130 53 277 3.0 9.0 0.00 0.00 0.00 46 1014.4
20260509173105 53 277 3.0 9.0 0.00 0.00 0.00 46 1015.5
20260509172629 53 277 3.0 8.0 0.00 0.00 0.00 48 1014.4
20260509172129 53 277 3.0 12.0 0.00 0.00 0.00 47 1014.3
20260509171130 54 277 3.0 9.0 0.00 0.00 0.00 44 1014.3
20260509170630 54 277 3.0 9.0 0.00 0.00 0.00 44 1014.3
20260509170105 54 277 1.0 7.0 0.00 0.00 0.00 44 1015.4
20260509165629 55 277 2.0 7.0 0.00 0.00 0.00 45 1014.2
20260509164650 54 277 2.0 7.0 0.00 0.00 0.00 42 1015.3
20260509164630 55 277 3.0 7.0 0.00 0.00 0.00 42 1014.2
20260509164129 55 277 2.0 7.0 0.00 0.00 0.00 40 1014.3
20260509163629 55 277 2.0 7.0 0.00 0.00 0.00 39 1014.3
20260509163129 55 277 2.0 7.0 0.00 0.00 0.00 39 1014.3
20260509163057 54 277 1.0 7.0 0.00 0.00 0.00 39 1015.4
20260509162629 55 277 2.0 8.0 0.00 0.00 0.00 37 1014.4
20260509162128 55 277 2.0 8.0 0.00 0.00 0.00 37 1014.4
20260509161640 55 277 1.0 8.0 0.00 0.00 0.00 37 1015.6
20260509161630 55 277 2.0 8.0 0.00 0.00 0.00 37 1014.5
20260509161129 56 277 2.0 8.0 0.00 0.00 0.00 39 1014.4
20260509160031 55 277 1.0 6.0 0.00 0.00 0.00 38 1015.5
20260509155631 56 277 2.0 6.0 0.00 0.00 0.00 38 1014.4
20260509155129 56 277 2.0 7.0 0.00 0.00 0.00 38 1014.5
20260509154639 55 277 3.0 10.0 0.00 0.00 0.00 35 1015.6
20260509154632 56 277 3.0 10.0 0.00 0.00 0.00 35 1014.6
20260509153629 56 277 2.0 9.0 0.00 0.00 0.00 37 1014.6
20260509153130 56 277 2.0 12.0 0.00 0.00 0.00 35 1014.6
20260509153030 56 277 0.0 12.0 0.00 0.00 0.00 36 1015.7
20260509152129 56 277 2.0 8.0 0.00 0.00 0.00 33 1014.7
20260509151129 56 277 2.0 6.0 0.00 0.00 0.00 37 1014.8
20260509150630 56 277 2.0 6.0 0.00 0.00 0.00 37 1014.8
20260509150129 56 277 3.0 9.0 0.00 0.00 0.00 36 1014.9
20260509150030 55 277 4.0 9.0 0.00 0.00 0.00 35 1016.0
20260509145630 55 277 4.0 9.0 0.00 0.00 0.00 36 1014.9
20260509145125 55 277 4.0 10.0 0.00 0.00 0.00 37 1014.9
20260509144631 55 277 4.0 10.0 0.00 0.00 0.00 35 1016.1
20260509144620 55 277 4.0 9.0 0.00 0.00 0.00 35 1015.0
20260509144114 55 277 3.0 9.0 0.00 0.00 0.00 35 1015.0
20260509143603 56 277 3.0 9.0 0.00 0.00 0.00 38 1014.9
20260509143101 55 277 4.0 8.0 0.00 0.00 0.00 39 1014.9
20260509143036 54 277 2.0 8.0 0.00 0.00 0.00 40 1015.9
20260509142601 55 277 3.0 9.0 0.00 0.00 0.00 39 1014.9
20260509142101 55 277 2.0 9.0 0.00 0.00 0.00 36 1014.9
20260509141632 54 277 1.0 6.0 0.00 0.00 0.00 41 1015.8
20260509141601 55 277 2.0 6.0 0.00 0.00 0.00 40 1014.7
20260509141102 54 277 3.0 10.0 0.00 0.00 0.00 40 1014.7
20260509140601 54 277 4.0 11.0 0.00 0.00 0.00 37 1014.8
20260509140030 53 277 3.0 11.0 0.00 0.00 0.00 42 1015.9
20260509135601 54 277 4.0 11.0 0.00 0.00 0.00 41 1014.8
20260509134633 54 277 2.0 6.0 0.00 0.00 0.00 46 1015.9
20260509134601 54 277 2.0 6.0 0.00 0.00 0.00 45 1014.9
20260509134101 55 277 1.0 5.0 0.00 0.00 0.00 46 1015.0
20260509133601 54 277 2.0 7.0 0.00 0.00 0.00 45 1015.0
20260509133103 54 277 2.0 7.0 0.00 0.00 0.00 49 1014.9
20260509133030 53 277 2.0 7.0 0.00 0.00 0.00 48 1016.0
20260509132601 54 277 1.0 4.0 0.00 0.00 0.00 49 1015.1
20260509132059 53 277 1.0 4.0 0.00 0.00 0.00 51 1015.1
20260509131631 52 277 0.0 4.0 0.00 0.00 0.00 54 1016.2
20260509131550 52 277 1.0 4.0 0.00 0.00 0.00 53 1015.1
20260509130538 50 277 1.0 4.0 0.00 0.00 0.00 56 1015.2
20260509130036 50 277 1.0 4.0 0.00 0.00 0.00 62 1015.2
20260509130031 49 277 1.0 4.0 0.00 0.00 0.00 62 1016.4
20260509125537 49 277 0.0 4.0 0.00 0.00 0.00 62 1015.3
20260509124630 45 277 0.0 1.0 0.00 0.00 0.00 61 1016.6
20260509124537 45 277 0.0 1.0 0.00 0.00 0.00 63 1015.4
20260509124035 45 277 0.0 0.0 0.00 0.00 0.00 65 1015.4
20260509123531 43 277 0.0 0.0 0.00 0.00 0.00 64 1015.4
20260509123030 42 277 0.0 0.0 0.00 0.00 0.00 68 1015.4
20260509123026 42 277 0.0 0.0 0.00 0.00 0.00 68 1016.6
20260509122529 40 277 0.0 0.0 0.00 0.00 0.00 72 1015.4
20260509122030 39 277 0.0 0.0 0.00 0.00 0.00 73 1015.4
20260509121625 37 277 0.0 0.0 0.00 0.00 0.00 78 1016.6
20260509121530 37 277 0.0 0.0 0.00 0.00 0.00 78 1015.4
20260509120529 35 277 0.0 0.0 0.00 0.00 0.00 84 1015.5
20260509120017 33 277 0.0 0.0 0.00 0.00 0.00 86 1016.6
20260509115531 33 277 0.0 0.0 0.00 0.00 0.00 86 1015.5
20260509114029 31 277 0.0 0.0 0.00 0.00 0.00 88 1015.5
20260509113029 30 277 0.0 0.0 0.00 0.00 0.00 90 1015.6
20260509113017 30 277 0.0 0.0 0.00 0.00 0.00 90 1016.8
20260509112528 30 277 0.0 0.0 0.00 0.00 0.00 90 1015.6
20260509112031 30 277 0.0 0.0 0.00 0.00 0.00 91 1015.6
20260509111615 29 277 0.0 0.0 0.00 0.00 0.00 92 1016.7
20260509111529 29 277 0.0 0.0 0.00 0.00 0.00 92 1015.5
20260509111031 29 277 0.0 0.0 0.00 0.00 0.00 92 1015.4
20260509110529 29 277 0.0 0.0 0.00 0.00 0.00 93 1015.4
20260509110031 29 277 0.0 0.0 0.00 0.00 0.00 93 1015.3
20260509110006 29 277 0.0 0.0 0.00 0.00 0.00 93 1016.5
20260509104030 28 277 0.0 0.0 0.00 0.00 0.00 93 1015.3
20260509103003 27 277 0.0 0.0 0.00 0.00 0.00 94 1016.4
20260509102510 27 277 0.0 0.0 0.00 0.00 0.00 93 1015.2
20260509102006 27 277 0.0 0.0 0.00 0.00 0.00 93 1015.1
20260509101004 27 277 0.0 0.0 0.00 0.00 0.00 93 1015.0
20260509100503 27 277 0.0 0.0 0.00 0.00 0.00 93 1015.0
20260509100150 27 277 0.0 0.0 0.00 0.00 0.00 93 1016.1
20260509100004 27 277 0.0 0.0 0.00 0.00 0.00 93 1015.0
20260509095002 27 277 0.0 0.0 0.00 0.00 0.00 92 1014.8
20260509094547 27 277 0.0 0.0 0.00 0.00 0.00 92 1015.8
20260509094503 27 277 0.0 0.0 0.00 0.00 0.00 92 1014.7
20260509094003 27 277 0.0 0.0 0.00 0.00 0.00 92 1014.6
20260509093503 27 277 0.0 0.0 0.00 0.00 0.00 92 1014.6
20260509093132 27 277 0.0 0.0 0.00 0.00 0.00 92 1015.6
20260509093001 27 277 0.0 0.0 0.00 0.00 0.00 92 1014.5
20260509092503 27 277 0.0 0.0 0.00 0.00 0.00 92 1014.3
20260509092001 28 277 0.0 0.0 0.00 0.00 0.00 92 1014.3
20260509091530 27 277 0.0 0.0 0.00 0.00 0.00 92 1015.4
20260509091500 28 277 0.0 0.0 0.00 0.00 0.00 92 1014.2
20260509091001 28 277 0.0 0.0 0.00 0.00 0.00 92 1014.2
20260509090502 28 277 0.0 0.0 0.00 0.00 0.00 92 1014.0
20260509085501 28 277 0.0 0.0 0.00 0.00 0.00 92 1014.0
20260509085000 28 277 0.0 0.0 0.00 0.00 0.00 91 1014.1
20260509084000 28 277 0.0 0.0 0.00 0.00 0.00 91 1014.1
20260509083500 28 277 0.0 0.0 0.00 0.00 0.00 91 1014.2
20260509083130 28 277 0.0 0.0 0.00 0.00 0.00 91 1015.3
20260509083002 28 277 0.0 0.0 0.00 0.00 0.00 91 1014.2
20260509082500 28 277 0.0 0.0 0.00 0.00 0.00 91 1014.2
20260509082000 28 277 0.0 0.0 0.00 0.00 0.00 91 1014.2
20260509081534 28 277 0.0 0.0 0.00 0.00 0.00 90 1015.4
20260509081501 28 277 0.0 0.0 0.00 0.00 0.00 90 1014.3
20260509081001 28 277 0.0 0.0 0.00 0.00 0.00 90 1014.2
20260509080502 28 277 0.0 0.0 0.00 0.00 0.00 90 1014.3
20260509075000 29 277 0.0 0.0 0.00 0.00 0.00 89 1014.3
20260509074001 29 277 0.0 0.0 0.00 0.00 0.00 90 1014.2
20260509073500 28 277 0.0 0.0 0.00 0.00 0.00 91 1014.2
20260509073125 28 277 0.0 0.0 0.00 0.00 0.00 91 1015.3
20260509073002 28 277 0.0 0.0 0.00 0.00 0.00 90 1014.1
20260509072501 28 277 0.0 0.0 0.00 0.00 0.00 90 1014.1
20260509072002 28 277 0.0 0.0 0.00 0.00 0.00 90 1014.2
20260509071522 28 277 0.0 0.0 0.00 0.00 0.00 90 1015.2
20260509071500 28 277 0.0 0.0 0.00 0.00 0.00 90 1014.1
20260509071001 29 277 0.0 0.0 0.00 0.00 0.00 90 1014.1
20260509070502 29 277 0.0 0.0 0.00 0.00 0.00 90 1014.1
20260509070111 28 277 0.0 0.0 0.00 0.00 0.00 90 1015.1
20260509070001 29 277 0.0 0.0 0.00 0.00 0.00 90 1014.1
20260509065501 29 277 0.0 0.0 0.00 0.00 0.00 90 1014.1
20260509065001 29 277 0.0 0.0 0.00 0.00 0.00 91 1014.0
20260509064509 29 277 0.0 0.0 0.00 0.00 0.00 91 1015.1
20260509064501 29 277 0.0 0.0 0.00 0.00 0.00 90 1014.1
20260509064002 29 277 0.0 0.0 0.00 0.00 0.00 89 1014.0